sat.trackr.live / text

‹ back to catalog

ASIASAT 5

NORAD 35696 · 2009-042A

PAYLOAD ACTIVE UNKNOWN

§ Identity

Operator
Country
AC
Launch date
2009-08-11
Launch site
TYMSC
Launch vehicle
Mass (kg)
RCS (m²)
15.85

Purposes: comms

External: N2YO · Heavens-Above · Gunter

§ Orbital elements

Epoch: 2026-09-20T00:17:31.698816Z

Period
1,436.11 min
Inclination
0.0094°
Eccentricity
0.0001720
Mean motion
1.00270776 rev/d
Perigee alt
35,779.6 km
Apogee alt
35,794.1 km
Semi-major
42,165.0 km
B*
0.0000e+0
RAAN
63.4133°
Arg perigee
127.5604°
Mean anomaly
272.8618°
Rev number
6,267

§ Raw data

ASIASAT 51 35696U 09042A   26263.01217244 -.00000311  00000+0  00000+0 0  99982 35696   0.0094  63.4133 0001720 127.5604 272.8618  1.00270776 62674

JSON: /api/v1/satellites/35696 · /tle

For live sub-satellite position, see the globe view (requires WebGL).

§ Visibility from observer

Set your observer location to see the next 7 days of passes ≥ 10°. The values pass through the URL so the page stays shareable.

No JS? Fill the form by hand. The geolocation button needs JavaScript.